When you browse on this site, cookies collect data to enhance your experience and personalize the content and advertising you see.
Visit our Privacy Policy to learn more. By continuing to use the site, you agree to this use of cookies and data.
  • în România
  • Lista ţărilor
  • Pe 7 zile
  • Temperatura apei
  • Meteo pe hartă
  • Widget-uri
  • user-avatar
    Intrare

    Meteo pe oră la Bucureşti

    Astăzi, 27 Mai, Miercuri

    Timp Temperatura Precipitaţii Vânt Presiune Umiditate
    00:00 +12°C° 0 mm 2 m/s 758 mmHg 77%
    01:00 +12°C° 0 mm 1 m/s 758 mmHg 78%
    02:00 +11°C° 0 mm 1 m/s 758 mmHg 80%
    03:00 +11°C° 0 mm 1 m/s 758 mmHg 81%
    04:00 +11°C° 0 mm 1 m/s 759 mmHg 82%
    05:00 +9°C° 0 mm 0 m/s 759 mmHg 83%
    06:00 +12°C° 0 mm 1 m/s 759 mmHg 78%
    07:00 +14°C° 0 mm 1 m/s 759 mmHg 73%
    08:00 +15°C° 0 mm 1 m/s 759 mmHg 68%
    09:00 +16°C° 0.2 mm 2 m/s 759 mmHg 63%
    10:00 +18°C° 0.2 mm 2 m/s 759 mmHg 59%
    11:00 +19°C° 0.2 mm 2 m/s 758 mmHg 54%
    12:00 +19°C° 0.3 mm 2 m/s 758 mmHg 52%
    13:00 +20°C° 0.3 mm 2 m/s 757 mmHg 50%
    14:00 +20°C° 0.3 mm 3 m/s 757 mmHg 48%
    15:00 +20°C° 0.4 mm 3 m/s 757 mmHg 50%
    16:00 +20°C° 0.4 mm 3 m/s 756 mmHg 52%
    17:00 +20°C° 0.4 mm 3 m/s 756 mmHg 55%
    18:00 +18°C° 0.4 mm 3 m/s 756 mmHg 61%
    19:00 +17°C° 0.4 mm 3 m/s 757 mmHg 67%
    20:00 +15°C° 0.4 mm 2 m/s 757 mmHg 73%
    21:00 +14°C° 0 mm 2 m/s 757 mmHg 75%
    22:00 +14°C° 0 mm 2 m/s 757 mmHg 77%
    23:00 +13°C° 0 mm 2 m/s 757 mmHg 79%

    Mâine, 28 Mai, Joi

    Timp Temperatura Precipitaţii Vânt Presiune Umiditate
    00:00 +13°C° 0 mm 2 m/s 757 mmHg 81%
    01:00 +12°C° 0 mm 2 m/s 757 mmHg 82%
    02:00 +12°C° 0 mm 2 m/s 757 mmHg 83%
    03:00 +12°C° 0 mm 2 m/s 756 mmHg 83%
    04:00 +12°C° 0 mm 2 m/s 756 mmHg 83%
    05:00 +12°C° 0 mm 2 m/s 756 mmHg 83%
    06:00 +13°C° 0 mm 2 m/s 756 mmHg 79%
    07:00 +14°C° 0 mm 3 m/s 756 mmHg 74%
    08:00 +15°C° 0 mm 4 m/s 756 mmHg 69%
    09:00 +17°C° 0.3 mm 3 m/s 755 mmHg 64%
    10:00 +19°C° 0.3 mm 3 m/s 755 mmHg 58%
    11:00 +20°C° 0.3 mm 3 m/s 755 mmHg 53%
    12:00 +21°C° 0.4 mm 2 m/s 754 mmHg 50%
    13:00 +21°C° 0.4 mm 2 m/s 753 mmHg 47%
    14:00 +23°C° 0.4 mm 2 m/s 753 mmHg 44%
    15:00 +23°C° 0 mm 2 m/s 753 mmHg 45%
    16:00 +23°C° 0 mm 2 m/s 752 mmHg 45%
    17:00 +23°C° 0 mm 2 m/s 752 mmHg 45%
    18:00 +21°C° 0.1 mm 3 m/s 752 mmHg 52%
    19:00 +19°C° 0.1 mm 3 m/s 752 mmHg 60%
    20:00 +17°C° 0.1 mm 3 m/s 752 mmHg 67%
    21:00 +16°C° 0.8 mm 2 m/s 753 mmHg 71%
    22:00 +16°C° 0.8 mm 2 m/s 753 mmHg 75%
    23:00 +15°C° 0.8 mm 1 m/s 753 mmHg 80%

    Poimâine, 29 Mai, Vineri

    Timp Temperatura Precipitaţii Vânt Presiune Umiditate
    00:00 +14°C° 1 mm 1 m/s 753 mmHg 82%
    01:00 +14°C° 1 mm 1 m/s 753 mmHg 85%
    02:00 +13°C° 1 mm 1 m/s 752 mmHg 87%
    03:00 +13°C° 0.4 mm 1 m/s 752 mmHg 88%
    04:00 +13°C° 0.4 mm 1 m/s 753 mmHg 89%
    05:00 +12°C° 0.4 mm 2 m/s 753 mmHg 90%
    06:00 +14°C° 0.2 mm 2 m/s 753 mmHg 86%
    07:00 +15°C° 0.2 mm 2 m/s 753 mmHg 82%
    08:00 +16°C° 0.2 mm 1 m/s 753 mmHg 78%
    09:00 +17°C° 0.1 mm 2 m/s 753 mmHg 72%
    10:00 +19°C° 0.1 mm 2 m/s 753 mmHg 65%
    11:00 +20°C° 0.1 mm 2 m/s 753 mmHg 59%
    12:00 +21°C° 0.2 mm 2 m/s 752 mmHg 56%
    13:00 +23°C° 0.2 mm 2 m/s 752 mmHg 53%
    14:00 +23°C° 0.2 mm 2 m/s 752 mmHg 49%
    15:00 +23°C° 0.3 mm 2 m/s 752 mmHg 50%
    16:00 +23°C° 0.3 mm 2 m/s 751 mmHg 51%
    17:00 +23°C° 0.3 mm 2 m/s 751 mmHg 52%
    18:00 +21°C° 0.3 mm 2 m/s 752 mmHg 59%
    19:00 +19°C° 0.3 mm 2 m/s 752 mmHg 65%
    20:00 +17°C° 0.3 mm 2 m/s 752 mmHg 72%
    21:00 +16°C° 0.7 mm 3 m/s 752 mmHg 77%
    22:00 +16°C° 0.7 mm 3 m/s 753 mmHg 83%
    23:00 +14°C° 0.7 mm 3 m/s 753 mmHg 88%

    30 Mai, Sâmbătă

    Timp Temperatura Precipitaţii Vânt Presiune Umiditate
    00:00 +13°C° 0.5 mm 3 m/s 753 mmHg 89%
    01:00 +13°C° 0.5 mm 3 m/s 753 mmHg 90%
    02:00 +13°C° 0.5 mm 2 m/s 752 mmHg 92%
    03:00 +13°C° 0.1 mm 2 m/s 753 mmHg 92%
    04:00 +13°C° 0.1 mm 2 m/s 753 mmHg 92%
    05:00 +13°C° 0.1 mm 1 m/s 753 mmHg 92%
    06:00 +14°C° 0.3 mm 1 m/s 753 mmHg 88%
    07:00 +15°C° 0.3 mm 2 m/s 753 mmHg 84%
    08:00 +16°C° 0.3 mm 2 m/s 753 mmHg 79%
    09:00 +17°C° 0.1 mm 2 m/s 753 mmHg 76%
    10:00 +18°C° 0.1 mm 2 m/s 753 mmHg 72%
    11:00 +19°C° 0.1 mm 2 m/s 753 mmHg 68%
    12:00 +20°C° 0.3 mm 2 m/s 753 mmHg 65%
    13:00 +21°C° 0.3 mm 2 m/s 752 mmHg 61%
    14:00 +22°C° 0.3 mm 1 m/s 752 mmHg 58%
    15:00 +22°C° 0.9 mm 1 m/s 752 mmHg 59%
    16:00 +21°C° 0.9 mm 2 m/s 752 mmHg 60%
    17:00 +21°C° 0.9 mm 2 m/s 752 mmHg 61%
    18:00 +21°C° 0.4 mm 1 m/s 752 mmHg 66%
    19:00 +19°C° 0.4 mm 1 m/s 752 mmHg 72%
    20:00 +18°C° 0.4 mm 1 m/s 752 mmHg 77%
    21:00 +16°C° 0.2 mm 1 m/s 752 mmHg 80%
    22:00 +16°C° 0.2 mm 1 m/s 752 mmHg 82%
    23:00 +15°C° 0.2 mm 2 m/s 753 mmHg 84%

    31 Mai, Duminică

    Timp Temperatura Precipitaţii Vânt Presiune Umiditate
    00:00 +15°C° 0 mm 2 m/s 752 mmHg 85%
    01:00 +14°C° 0 mm 2 m/s 752 mmHg 87%
    02:00 +14°C° 0 mm 2 m/s 752 mmHg 88%
    03:00 +13°C° 0 mm 1 m/s 752 mmHg 87%
    04:00 +13°C° 0 mm 1 m/s 752 mmHg 87%
    05:00 +13°C° 0 mm 1 m/s 752 mmHg 86%
    06:00 +14°C° 0 mm 1 m/s 752 mmHg 81%
    07:00 +16°C° 0 mm 1 m/s 752 mmHg 76%
    08:00 +18°C° 0 mm 1 m/s 753 mmHg 71%
    09:00 +19°C° 0 mm 2 m/s 753 mmHg 66%
    10:00 +20°C° 0 mm 3 m/s 753 mmHg 61%
    11:00 +22°C° 0 mm 4 m/s 753 mmHg 56%
    12:00 +22°C° 0.1 mm 4 m/s 752 mmHg 54%
    13:00 +22°C° 0.1 mm 5 m/s 752 mmHg 52%
    14:00 +23°C° 0.1 mm 6 m/s 751 mmHg 50%
    15:00 +22°C° 0 mm 6 m/s 751 mmHg 50%
    16:00 +22°C° 0 mm 6 m/s 751 mmHg 50%
    17:00 +22°C° 0 mm 6 m/s 751 mmHg 50%
    18:00 +20°C° 0 mm 5 m/s 751 mmHg 54%
    19:00 +19°C° 0 mm 5 m/s 751 mmHg 59%
    20:00 +17°C° 0 mm 4 m/s 751 mmHg 64%
    21:00 +15°C° 0 mm 4 m/s 751 mmHg 65%
    22:00 +15°C° 0 mm 4 m/s 751 mmHg 66%
    23:00 +14°C° 0 mm 4 m/s 752 mmHg 68%

    1 Iunie, Luni

    Timp Temperatura Precipitaţii Vânt Presiune Umiditate
    00:00 +13°C° 0 mm 4 m/s 752 mmHg 70%
    01:00 +13°C° 0 mm 4 m/s 751 mmHg 73%
    02:00 +12°C° 0 mm 3 m/s 751 mmHg 76%
    03:00 +12°C° 0 mm 3 m/s 751 mmHg 79%
    04:00 +11°C° 0 mm 3 m/s 751 mmHg 81%
    05:00 +11°C° 0 mm 3 m/s 751 mmHg 84%
    06:00 +12°C° 0 mm 3 m/s 751 mmHg 79%
    07:00 +14°C° 0 mm 4 m/s 751 mmHg 74%
    08:00 +15°C° 0 mm 4 m/s 751 mmHg 69%
    09:00 +18°C° 0 mm 4 m/s 751 mmHg 64%
    10:00 +19°C° 0 mm 4 m/s 750 mmHg 59%
    11:00 +21°C° 0 mm 4 m/s 750 mmHg 54%
    12:00 +22°C° 0 mm 4 m/s 750 mmHg 51%
    13:00 +23°C° 0 mm 4 m/s 750 mmHg 49%
    14:00 +23°C° 0 mm 4 m/s 749 mmHg 46%
    15:00 +23°C° 0.1 mm 4 m/s 749 mmHg 48%
    16:00 +23°C° 0.1 mm 4 m/s 749 mmHg 50%
    17:00 +23°C° 0.1 mm 4 m/s 749 mmHg 52%
    18:00 +21°C° 0.3 mm 4 m/s 749 mmHg 60%
    19:00 +19°C° 0.3 mm 3 m/s 749 mmHg 68%
    20:00 +17°C° 0.3 mm 3 m/s 749 mmHg 75%
    21:00 +16°C° 0.1 mm 2 m/s 750 mmHg 78%
    22:00 +16°C° 0.1 mm 2 m/s 750 mmHg 81%
    23:00 +15°C° 0.1 mm 2 m/s 750 mmHg 83%
    Arată mai mult